• In United Kingdom
  • List of Countries
  • For 7 days
  • Water Temperature
  • Satellite Maps
  • Weather Map
  • Weather Widgets
  • user-avatar
    Login

    Hourly Weather Molepolole

    Today, 22 September, Saturday

    Time Temperature Precipitation Wind Pressure Humidity
    00:00 +23°C° 0 mm 2 mps 666 mmHg 38%
    01:00 +21°C° 0 mm 3 mps 666 mmHg 40%
    02:00 +21°C° 0 mm 3 mps 665 mmHg 42%
    03:00 +20°C° 0 mm 3 mps 665 mmHg 45%
    04:00 +20°C° 0 mm 3 mps 665 mmHg 48%
    05:00 +19°C° 0 mm 3 mps 665 mmHg 51%
    06:00 +20°C° 0 mm 4 mps 666 mmHg 50%
    07:00 +21°C° 0 mm 5 mps 666 mmHg 49%
    08:00 +22°C° 0 mm 6 mps 667 mmHg 48%
    09:00 +24°C° 0 mm 6 mps 667 mmHg 40%
    10:00 +28°C° 0 mm 7 mps 667 mmHg 32%
    11:00 +30°C° 0 mm 7 mps 668 mmHg 24%
    12:00 +33°C° 0 mm 6 mps 667 mmHg 20%
    13:00 +34°C° 0 mm 6 mps 667 mmHg 16%
    14:00 +36°C° 0 mm 5 mps 667 mmHg 12%
    15:00 +35°C° 0 mm 5 mps 666 mmHg 12%
    16:00 +35°C° 0 mm 5 mps 666 mmHg 11%
    17:00 +35°C° 0 mm 4 mps 665 mmHg 10%
    18:00 +33°C° 0 mm 4 mps 665 mmHg 12%
    19:00 +30°C° 0 mm 4 mps 665 mmHg 14%
    20:00 +28°C° 0 mm 4 mps 665 mmHg 15%
    21:00 +27°C° 0 mm 4 mps 665 mmHg 18%
    22:00 +27°C° 0 mm 5 mps 666 mmHg 21%
    23:00 +26°C° 0 mm 5 mps 666 mmHg 24%

    Tomorrow, 23 September, Sunday

    Time Temperature Precipitation Wind Pressure Humidity
    00:00 +25°C° 0 mm 5 mps 666 mmHg 26%
    01:00 +25°C° 0 mm 5 mps 665 mmHg 28%
    02:00 +23°C° 0 mm 5 mps 665 mmHg 30%
    03:00 +22°C° 0 mm 5 mps 665 mmHg 31%
    04:00 +22°C° 0 mm 5 mps 665 mmHg 33%
    05:00 +21°C° 0 mm 5 mps 665 mmHg 34%
    06:00 +22°C° 0 mm 6 mps 666 mmHg 34%
    07:00 +23°C° 0 mm 6 mps 666 mmHg 33%
    08:00 +24°C° 0 mm 7 mps 667 mmHg 32%
    09:00 +27°C° 0 mm 7 mps 667 mmHg 29%
    10:00 +28°C° 0 mm 7 mps 668 mmHg 27%
    11:00 +30°C° 0 mm 7 mps 668 mmHg 24%
    12:00 +33°C° 0 mm 6 mps 667 mmHg 21%
    13:00 +34°C° 0 mm 5 mps 667 mmHg 19%
    14:00 +35°C° 0 mm 5 mps 666 mmHg 16%
    15:00 +35°C° 0 mm 5 mps 666 mmHg 16%
    16:00 +35°C° 0 mm 4 mps 665 mmHg 15%
    17:00 +35°C° 0 mm 4 mps 665 mmHg 15%
    18:00 +33°C° 0 mm 4 mps 665 mmHg 17%
    19:00 +30°C° 0 mm 4 mps 665 mmHg 19%
    20:00 +28°C° 0 mm 4 mps 665 mmHg 21%
    21:00 +28°C° 0 mm 5 mps 665 mmHg 23%
    22:00 +27°C° 0 mm 5 mps 665 mmHg 25%
    23:00 +26°C° 0 mm 6 mps 666 mmHg 27%

    Day after tomorrow, 24 September, Monday

    Time Temperature Precipitation Wind Pressure Humidity
    00:00 +25°C° 0 mm 5 mps 665 mmHg 30%
    01:00 +23°C° 0 mm 4 mps 665 mmHg 33%
    02:00 +24°C° 0 mm 3 mps 665 mmHg 35%
    03:00 +22°C° 0 mm 3 mps 665 mmHg 37%
    04:00 +21°C° 0 mm 3 mps 665 mmHg 38%
    05:00 +21°C° 0 mm 3 mps 665 mmHg 40%
    06:00 +22°C° 0 mm 4 mps 665 mmHg 39%
    07:00 +23°C° 0 mm 4 mps 666 mmHg 38%
    08:00 +25°C° 0 mm 5 mps 667 mmHg 37%
    09:00 +26°C° 0 mm 5 mps 667 mmHg 32%
    10:00 +28°C° 0 mm 6 mps 667 mmHg 27%
    11:00 +30°C° 0 mm 6 mps 667 mmHg 22%
    12:00 +33°C° 0 mm 5 mps 666 mmHg 19%
    13:00 +34°C° 0 mm 5 mps 666 mmHg 16%
    14:00 +35°C° 0 mm 5 mps 665 mmHg 14%
    15:00 +35°C° 0 mm 4 mps 665 mmHg 13%
    16:00 +35°C° 0 mm 4 mps 664 mmHg 13%
    17:00 +35°C° 0 mm 3 mps 664 mmHg 12%
    18:00 +33°C° 0 mm 3 mps 664 mmHg 13%
    19:00 +30°C° 0 mm 3 mps 664 mmHg 14%
    20:00 +28°C° 0 mm 3 mps 664 mmHg 16%
    21:00 +27°C° 0 mm 3 mps 664 mmHg 16%
    22:00 +27°C° 0 mm 3 mps 664 mmHg 16%
    23:00 +26°C° 0 mm 3 mps 665 mmHg 17%

    25 September, Tuesday

    Time Temperature Precipitation Wind Pressure Humidity
    00:00 +25°C° 0 mm 3 mps 664 mmHg 18%
    01:00 +24°C° 0 mm 3 mps 664 mmHg 20%
    02:00 +22°C° 0 mm 3 mps 663 mmHg 21%
    03:00 +21°C° 0 mm 3 mps 663 mmHg 23%
    04:00 +21°C° 0 mm 3 mps 663 mmHg 24%
    05:00 +20°C° 0 mm 3 mps 663 mmHg 26%
    06:00 +21°C° 0 mm 3 mps 664 mmHg 26%
    07:00 +22°C° 0 mm 4 mps 665 mmHg 26%
    08:00 +25°C° 0 mm 5 mps 666 mmHg 27%
    09:00 +27°C° 0 mm 4 mps 666 mmHg 24%
    10:00 +29°C° 0 mm 4 mps 666 mmHg 21%
    11:00 +32°C° 0 mm 4 mps 666 mmHg 18%
    12:00 +33°C° 0 mm 4 mps 666 mmHg 16%
    13:00 +34°C° 0 mm 3 mps 665 mmHg 14%
    14:00 +36°C° 0 mm 3 mps 664 mmHg 12%
    15:00 +36°C° 0 mm 2 mps 664 mmHg 12%
    16:00 +35°C° 0 mm 1 mps 664 mmHg 11%
    17:00 +35°C° 0 mm 1 mps 663 mmHg 11%
    18:00 +33°C° 0 mm 1 mps 664 mmHg 12%
    19:00 +32°C° 0 mm 2 mps 664 mmHg 14%
    20:00 +30°C° 0 mm 2 mps 664 mmHg 15%
    21:00 +30°C° 0 mm 2 mps 664 mmHg 16%
    22:00 +29°C° 0 mm 2 mps 664 mmHg 16%
    23:00 +29°C° 0 mm 1 mps 664 mmHg 17%

    26 September, Wednesday

    Time Temperature Precipitation Wind Pressure Humidity
    00:00 +28°C° 0 mm 1 mps 664 mmHg 19%
    01:00 +27°C° 0 mm 1 mps 663 mmHg 20%
    02:00 +26°C° 0 mm 1 mps 663 mmHg 22%
    03:00 +25°C° 0 mm 1 mps 663 mmHg 23%
    04:00 +25°C° 0 mm 1 mps 663 mmHg 24%
    05:00 +25°C° 0 mm 1 mps 664 mmHg 25%
    06:00 +26°C° 0 mm 2 mps 665 mmHg 24%
    07:00 +27°C° 0 mm 2 mps 666 mmHg 23%
    08:00 +28°C° 0 mm 2 mps 666 mmHg 21%
    09:00 +30°C° 0 mm 2 mps 667 mmHg 21%
    10:00 +31°C° 0 mm 3 mps 667 mmHg 20%
    11:00 +33°C° 0 mm 3 mps 667 mmHg 20%
    12:00 +34°C° 0 mm 3 mps 666 mmHg 18%
    13:00 +35°C° 0 mm 3 mps 666 mmHg 17%
    14:00 +36°C° 0 mm 3 mps 665 mmHg 16%
    15:00 +36°C° 0 mm 2 mps 665 mmHg 15%
    16:00 +35°C° 0 mm 1 mps 665 mmHg 15%
    17:00 +34°C° 0 mm 1 mps 665 mmHg 15%
    18:00 +33°C° 0.1 mm 1 mps 665 mmHg 17%
    19:00 +31°C° 0.1 mm 1 mps 665 mmHg 19%
    20:00 +30°C° 0.1 mm 1 mps 665 mmHg 22%
    21:00 +29°C° 0 mm 2 mps 665 mmHg 24%
    22:00 +28°C° 0 mm 2 mps 666 mmHg 26%
    23:00 +27°C° 0 mm 3 mps 666 mmHg 28%

    27 September, Thursday

    Time Temperature Precipitation Wind Pressure Humidity
    00:00 +27°C° 0 mm 3 mps 666 mmHg 29%
    01:00 +26°C° 0 mm 3 mps 665 mmHg 30%
    02:00 +26°C° 0 mm 3 mps 665 mmHg 31%
    03:00 +25°C° 0 mm 3 mps 665 mmHg 33%
    04:00 +25°C° 0 mm 3 mps 665 mmHg 35%
    05:00 +24°C° 0 mm 3 mps 665 mmHg 36%
    06:00 +25°C° 0 mm 4 mps 666 mmHg 37%
    07:00 +26°C° 0 mm 5 mps 667 mmHg 37%
    08:00 +27°C° 0 mm 7 mps 668 mmHg 37%
    09:00 +28°C° 0 mm 7 mps 668 mmHg 37%
    10:00 +29°C° 0 mm 8 mps 668 mmHg 36%
    11:00 +31°C° 0 mm 8 mps 669 mmHg 36%
    12:00 +32°C° 0 mm 7 mps 668 mmHg 33%
    13:00 +33°C° 0 mm 7 mps 668 mmHg 30%
    14:00 +34°C° 0 mm 6 mps 668 mmHg 27%
    15:00 +33°C° 0 mm 6 mps 667 mmHg 28%
    16:00 +33°C° 0 mm 6 mps 667 mmHg 28%
    17:00 +32°C° 0 mm 5 mps 667 mmHg 29%
    18:00 +30°C° 0.2 mm 5 mps 666 mmHg 32%
    19:00 +29°C° 0.2 mm 5 mps 666 mmHg 36%
    20:00 +27°C° 0.2 mm 5 mps 666 mmHg 40%
    21:00 +27°C° 0 mm 5 mps 666 mmHg 42%
    22:00 +26°C° 0 mm 5 mps 666 mmHg 44%
    23:00 +25°C° 0 mm 5 mps 666 mmHg 47%
    Show more